This is the latest recevied weather packets stored in our database for station/object K2NV. If no packets are shown the sender has not sent any weather packets the latest 10 day(s).
| Time | Temp. | Humidity | Pressure | Rain* | Wind** | Luminosity | Snow |
|---|---|---|---|---|---|---|---|
| 1777666156 | 8.33° C | 68% | 1011.1 hPa | 0 mm | - | - | - |
| 1777665855 | 8.33° C | 65% | 1011 hPa | 0 mm | - | - | - |
| 1777665556 | 8.33° C | 67% | 1011 hPa | 0 mm | - | - | - |
| 1777665256 | 7.78° C | 67% | 1011 hPa | 0 mm | - | - | - |
| 1777664956 | 7.78° C | 66% | 1011.1 hPa | 0 mm | - | - | - |
| 1777664656 | 7.78° C | 68% | 1011.1 hPa | 0 mm | - | - | - |
| 1777664357 | 7.78° C | 70% | 1011.2 hPa | 0 mm | - | - | - |
| 1777664056 | 7.78° C | 71% | 1011.3 hPa | 0 mm | - | - | - |
| 1777663757 | 7.78° C | 72% | 1011.3 hPa | 0 mm | - | - | - |
| 1777663456 | 7.78° C | 72% | 1011.3 hPa | 0 mm | - | - | - |
| 1777663157 | 7.78° C | 73% | 1011.3 hPa | 0 mm | - | - | - |
| 1777662857 | 7.78° C | 77% | 1011.2 hPa | 0 mm | - | - | - |
| 1777662556 | 7.78° C | 78% | 1011.2 hPa | 0 mm | - | - | - |
| 1777662255 | 7.22° C | 79% | 1011.3 hPa | 0 mm | - | - | - |
| 1777661957 | 7.22° C | 81% | 1011.4 hPa | 0 mm | - | - | - |
| 1777661658 | 7.22° C | 82% | 1011.5 hPa | 0 mm | - | - | - |
| 1777661355 | 6.67° C | 84% | 1011.6 hPa | 0 mm | - | - | - |
| 1777661057 | 6.67° C | 85% | 1011.8 hPa | 0.25 mm | - | - | - |
| 1777660756 | 6.11° C | 85% | 1011.8 hPa | 0.25 mm | - | - | - |
| 1777660455 | 6.11° C | 85% | 1011.8 hPa | 0.25 mm | - | - | - |
| 1777660156 | 5.56° C | 84% | 1012 hPa | 0.25 mm | - | - | - |
| 1777659856 | 5.56° C | 84% | 1012 hPa | 0.25 mm | - | - | - |
| 1777659556 | 5.56° C | 84% | 1012.1 hPa | 0.25 mm | - | - | - |
| 1777659255 | 5.56° C | 83% | 1012.2 hPa | 0.25 mm | - | - | - |
| 1777658956 | 5.56° C | 83% | 1012.2 hPa | 0.25 mm | - | - | - |
* Rain latest hour (hover to see other rain measurements)
** Current wind speed in m/s (hover to see current wind gust speed)